Home   Weather   Wittlich   Past weeks

Flag for Germany Past Weather in Wittlich, Rhineland-Palatinate, Germany — Yesterday and Last 2 Weeks

Now
57 °F

Passing clouds.


Feels Like: 57 °F
Forecast: 54 / 79 °F
Wind: 1 mph from Northwest

Location: Spangdahlem

Current Time: Sep 1, 2016 at 5:54:56 AM

Latest Report: Sep 1, 2016 at 4:58 AM


Visibility: N/A

Pressure: 30.13 "Hg

Humidity: 87%

Dew Point: 53 °F

Location of WittlichLocation

Past Weather in Wittlich — Graph

°F

Wittlich Temperature Yesterday

Maximum temperature yesterday: 77 °F (at 4:58 PM)
Minimum temperature yesterday: 56 °F (at 4:58 AM)
Average temperature yesterday: 67 °F

High & Low Weather Summary for the Past Weeks

 TemperatureHumidityPressure
High92 °F (Aug 26, 3:58 PM)100% (Aug 18, 9:58 PM)30.35 "Hg (Aug 18, 9:58 PM)
Low52 °F (Aug 22, 5:58 AM)32% (Aug 17, 5:58 PM)29.76 "Hg (Aug 18, 3:58 PM)
Average67 °F71%30.04 "Hg
* Reported Aug 17 3:58 AM — Sep 1 3:58 AM, Wittlich, Weather by CustomWeather, © 2016

Note: Actual official high and low records may vary slightly from our data, if they occured in-between our weather recording intervals... More about our weather records

Advertising

Wittlich Weather History for the Previous 24 Hours

Scroll right to see more
 ConditionsComfort  
Time TempWeatherWind HumidityBarometerVisibility
3:58 AM
Thu, Sep 1
59 °FClear.2 mph85%30.14 "HgN/A
2:58 AM60 °FPassing clouds.2 mph87%30.14 "HgN/A
1:58 AM61 °FClear.3 mph82%30.12 "HgN/A
1:02 AM64 °FPassing clouds.3 mph73%30.19 "HgN/A
12:58 AM64 °FPassing clouds.2 mph76%30.12 "HgN/A
11:58 PM
Wed, Aug 31
66 °FOvercast.2 mph71%30.12 "HgN/A
10:58 PM68 °FPassing clouds.2 mph65%30.12 "HgN/A
9:58 PM68 °FOvercast.3 mph64%30.11 "HgN/A
8:58 PM70 °FSunny.2 mph62%30.10 "HgN/A
7:58 PM72 °FPartly sunny.6 mph58%30.08 "HgN/A
7:00 PM75 °FPartly sunny.7 mph50%30.14 "HgN/A
6:58 PM75 °FOvercast.7 mph52%30.08 "HgN/A
6:00 PM77 °FScattered clouds.8 mph47%30.14 "HgN/A
4:58 PM77 °FScattered clouds.8 mph45%30.08 "HgN/A
3:58 PM76 °FPartly sunny.7 mph48%30.08 "HgN/A
2:58 PM77 °FScattered clouds.3 mph47%30.09 "HgN/A
1:58 PM76 °FSunny.3 mph49%30.10 "HgN/A
12:58 PM74 °FSunny.5 mph52%30.11 "HgN/A
11:58 AM72 °FSunny.No wind55%30.11 "HgN/A
10:58 AM68 °FPartly sunny.1 mph59%30.14 "HgN/A
9:58 AM64 °FPartly sunny.2 mph64%30.13 "HgN/A
8:58 AM63 °FPartly sunny.5 mph64%30.12 "HgN/A
7:58 AM58 °FPartly sunny.5 mph68%30.12 "HgN/A
6:58 AM57 °FPassing clouds.No wind68%30.11 "HgN/A
5:58 AM57 °FPassing clouds.No wind67%30.11 "HgN/A
Weather by CustomWeather, © 2016

See weather overviewHow to use our weather pages